Regional Weather Roundup
Issued by NWS Upton, NY

Current Version | Previous Version | Text Only | Print | Product List | Glossary Off
Versions: 1 2 3 4 5 6 7 8 9 10 11 12 13 14 15 16 17 18 19 20 21 22 23 24 25 26 27
000 ASUS41 KOKX 211305 RWROKX Regional Weather Roundup National Weather Service New York NY 800 AM EST WED FEB 21 2018 Note: "FAIR" indicates few or no clouds below 12,000 feet with no significant weather and/or obstructions to visibility. NYZ071-072-176-178-NJZ106-104-211400- New York City Metro Area CITY SKY/WX TMP DP RH WIND PRES REMARKS Central Park CLOUDY 63 58 83 W10G17 30.32R Bronx Bot Gard N/A 61 57 88 SW14 30.31R Bronx Lehman C N/A 61 57 88 SW9 N/A LaGuardia Arpt CLOUDY 58 53 84 S7 30.30R Queens College N/A 50 50 100 S7 N/A Kennedy Intl FOG 47 47 100 S7 30.33R VSB 1/4 Breezy Point N/A 45 N/A N/A SE3 N/A Brooklyn Coll N/A 48 48 100 SE2 N/A Staten Island N/A 61 59 94 SW8 N/A Newark/Liberty CLOUDY 62 59 90 SW9 30.29S Teterboro CLOUDY 62 58 86 SW8 30.28F $$ NYZ177-179-078>081-211400- Long Island New York CITY SKY/WX TMP DP RH WIND PRES REMARKS Jones Beach N/A 45 N/A N/A S10G16 N/A Wantagh N/A 48 46 93 SW6 N/A Hempstead N/A 48 48 100 S2 30.36R Matinecock Pt N/A 57 N/A N/A SW15 N/A Farmingdale FOG 49 49 100 SW8 30.33R VSB 1/4 MacArthur/ISP FOG 49 49 100 SW10 30.32R VSB 1/16 Shirley FOG 49 49 100 SW9 30.33S VSB<1/4 Mt Sinai Harb N/A N/A N/A N/A S7G14 N/A Westhampton FOG 49 49 100 SW13 30.34R VSB 1/4 East Hampton FOG 49 48 99 SW10G18 30.32S VSB 1/4 Southold N/A 52 52 100 S7 N/A Montauk N/A 50 50 100 SW9G18 30.34R $$ NYZ052-065-067-211400- Hudson Valley CITY SKY/WX TMP DP RH WIND PRES REMARKS White Plains PTSUNNY 53 53 100 S5 30.29R FOG Larchmont Harb N/A 45 N/A N/A S12 N/A Croton On Huds N/A 57 N/A N/A SE7 N/A Somers N/A 59 55 88 SW8 N/A Brewster N/A 55 55 100 S2 N/A Newburgh CLOUDY 57 57 100 CALM 30.28S Montgomery CLOUDY 57 55 93 SW10 30.25S Otisville N/A 55 54 94 SW7 N/A Warwick N/A 61 55 82 W3 N/A Suffern N/A 59 57 94 S5 N/A Poughkeepsie FOG 50 47 89 CALM 30.26S VSB 1 Albany CLOUDY 56 52 86 S15 30.18S $$ NJZ001-105-106-008-010-013-015-019>022-104-211400- New Jersey CITY SKY/WX TMP DP RH WIND PRES REMARKS Newark/Liberty CLOUDY 62 59 90 SW9 30.29S Teterboro CLOUDY 62 58 86 SW8 30.28F Caldwell CLOUDY 61 58 90 SW7 30.29F Somerville CLOUDY 59 59 100 CALM 30.29S Linden CLOUDY 63 59 88 W6 30.30F Perth Amboy N/A 59 N/A N/A W10 N/A Sussex CLOUDY 56 56 100 SW6 30.27F FOG Andover N/A 57 56 96 S5 30.29S Trenton CLOUDY 60 59 96 SW8 30.31S FOG Millville CLOUDY 58 58 100 VRB5 30.35F FOG Atlantic City FOG 55 55 100 S8 30.36R VSB 1/2 Wrightstown CLOUDY 63 61 93 SW13 30.30R Toms River CLOUDY 59 58 96 SW7 30.35R Belmar CLOUDY 61 59 93 S9 30.33S $$ PAZ047>061-062-071-211400- Eastern Pennsylvania CITY SKY/WX TMP DP RH WIND PRES REMARKS Philadelphia CLOUDY 61 59 93 SW18G25 30.33R Allentown FOG 47 45 93 CALM 30.30S VSB 1/4 Scranton FAIR 56 54 93 CALM 30.26S FOG $$ CTZ002-004>006-009-010-012-RIZ004-006-007-MAZ004-011-015-211400- Southern New England In CT CITY SKY/WX TMP DP RH WIND PRES REMARKS Bradley Intl CLOUDY 57 56 96 S10 30.25S Hartford CLOUDY 59 56 89 S7 30.27R Danbury CLOUDY 60 57 89 SW7 30.29S Wtrbury/Oxford CLOUDY 57 56 96 SW7 30.29S FOG Norwalk Harbor N/A 48 N/A N/A S3 N/A Bridgeport FOG 47 46 97 SW8 30.30S VSB 1/4 Meriden CLOUDY 52 52 100 SE7 30.28S FOG New Haven FOG 49 47 93 S6 30.30S VSB 1/4 Chester CLOUDY 57 57 100 SW13 30.29S FOG Groton FOG 48 47 96 SW7 30.30S VSB<1/4 Willimantic CLOUDY 59 56 89 SW8 30.28R In RI CITY SKY/WX TMP DP RH WIND PRES REMARKS Providence CLOUDY 59 57 93 SW14 30.27S Block Island LGT RAIN 46 46 100 SW18 30.33R VSB 1/4 Westerly FOG 49 49 100 S5 30.31S VSB<1/4 In MA CITY SKY/WX TMP DP RH WIND PRES REMARKS Boston CLOUDY 58 56 93 SW22G31 30.20F Worcester CLOUDY 54 54 100 SW17 30.23S FOG Westfield FOG 49 49 100 W3 30.24R VSB 1/4 Provincetown LGT RAIN 46 46 100 S15G23 30.25S VSB 1/4 Nantucket FOG 47 47 100 SW21 30.32R VSB 1/4 $$ ANZ330-335-338-340-345-350-353-355-211400- Coastal Marine Observations STATION/POSITION TIME SKY/WX TEMP WIND PRES VSBY WAVE AIR SEA DIR/SP/G HT/PER (UTC) (F) (DEG/KT/KT) (MB) (MI) (FT/S) NY Harb Entrance 1150 45 41 210/ 14/ 16 1026.2 4/ 6 20 S Fire Island 1250 45 42 230/ 14/ 17 1027.6 4/ 5 15 E Barnegat Li 1230 41 N/A 4/ 5 Hudson Canyon 1250 52 47 210/ 17/ 21 1028.3 5/ 5 Kings Point 1230 50 38 200/ 9/ 13 1027.2 Execution Rocks NOT AVBL Western LI Sound NOT AVBL Central LI Sound 1215 44 210/ 8/ 10 N/A 1 Robbins Reef 1230 56 200/ 6/ 11 1026.8 $$ >>>>>>>>>>>>>>>>>>>>>>>>>>>> KEY <<<<<<<<<<<<<<<<<<<<<<<<<<< > < > SKY/WX - Sky Condition/Present Weather < > TMP - Temperature in Fahrenheit < > DP - Dew Point in Fahrenheit < > RH - Relative Humidity in Percent < > WIND - Direction (from) and Speed in MPH < > PRES - Mean Sea Level Pressure (inches of Hg) < > WCI - Wind Chill Index < > VSB - Visibility in Miles < > HX - Heat Index < > TC - Temperature in Celsius < > VRB - Varibale Wind Direction < > < >>>>>>>>>>>>>>>>>>>>>>>>>>>> KEY <<<<<<<<<<<<<<<<<<<<<<<<<<<

USA.gov is the U.S. government's official web portal to all federal, state and local government web resources and services.